Regional Weather Roundup
Issued by NWS

Home | Current Version | Previous Version | Text Only | Print | Product List | Glossary On
Versions: 1 2 3 4 5 6 7 8 9 10 11 12 13 14 15 16 17 18 19 20 21 22 23 24 25 26 27 28 29 30 31 32 33 34 35 36 37 38 39 40 41 42 43 44 45 46 47 48 49 50
000
ASUS43 KMKX 220700
RWRWI

WISCONSIN REGIONAL WEATHER ROUNDUP
NATIONAL WEATHER SERVICE MILWAUKEE/SULLIVAN WI
200 AM CDT WED OCT 22 2014

NOTE: "FAIR" INDICATES FEW OR NO CLOUDS BELOW 12,000 FEET WITH NO
SIGNIFICANT WEATHER AND/OR OBSTRUCTIONS TO VISIBILITY.

WIZ001-002-006>008-014>016-023>028-220800-
NORTHWEST WISCONSIN

CITY           SKY/WX    TMP DP  RH WIND       PRES   REMARKS
SUPERIOR ARPT  CLEAR     29  29  99 CALM      30.21S
ASHLAND        CLEAR     28  27  96 CALM      30.25S
HAYWARD        CLEAR     41  34  76 S8        30.22F
SIREN          CLEAR     43  35  75 S9        30.20S
CUMBERLAND     CLEAR     37  34  87 SE7       30.22F WCI  32
RICE LAKE      CLEAR     38  34  84 SE6       30.25S WCI  34
CHETEK         CLEAR     38  35  87 SE7       30.24S WCI  33
LADYSMITH      CLEAR     36  33  88 SE3       30.28R
EAU CLAIRE     CLEAR     40  34  79 SE7       30.25S
MENOMONIE      CLEAR     37  34  87 E5        30.24S WCI  34
NEW RICHMOND   CLEAR     41  35  80 SE8       30.21S
OSCEOLA        CLEAR     43  37  78 SE10      30.23R
$$

WIZ003>005-009-010-017-018-220800-
NORTH CENTRAL WISCONSIN

CITY           SKY/WX    TMP DP  RH WIND       PRES   REMARKS
MANITOWISH WTR CLEAR     33  31  94 SE3       30.27R
ARBOR VITAE    CLEAR     36  33  87 CALM      30.27S
WOODRUFF       CLEAR     36  33  87 CALM      30.27S
RHINELANDER    CLEAR     30  28  92 SE3       30.29R
EAGLE RIVER    CLEAR     32  28  85 CALM      30.28S
LAND O LAKES   CLEAR     27  25  95 CALM      30.28S
PHILLIPS       CLEAR     30  29  97 SE3       30.26S
TOMAHAWK       CLEAR     29  28  96 CALM      30.29R
MEDFORD        CLEAR     32  31  97 CALM      30.28R
MERRILL        CLEAR     28  27  95 CALM      30.30R
$$

WIZ029-030-035-036-043>047-220800-
CENTRAL WISCONSIN

CITY           SKY/WX    TMP DP  RH WIND       PRES   REMARKS
WAUSAU         CLEAR     33  30  88 E5        30.29R WCI  29
MOSINEE        CLEAR     32  32 100 CALM      30.30R
MARSHFIELD     CLEAR     33  31  92 CALM      30.28R
STEVENS POINT  CLEAR     28  27  96 CALM      30.30S
WAUPACA        PTCLDY    32  31  96 CALM      30.31S
WAUTOMA        MOCLDY    27  27 100 CALM      30.31S
WISC RAPIDS    CLEAR     29  28  96 CALM      30.31R FOG
CAMP DOUGLAS   CLEAR     27  27 100 CALM      30.29S FOG
$$

WIZ011>013-019>022-031-037>040-048>050-220800-
NORTHEAST WISCONSIN

CITY           SKY/WX    TMP DP  RH WIND       PRES   REMARKS
ANTIGO         CLEAR     31  29  90 E6        30.30R WCI  26
SHAWANO        CLEAR     37  33  82 NE6       30.32R WCI  33
OCONTO         CLEAR     32  32 100 CALM      30.32R
STURGEON BAY   CLEAR     36  32  87 CALM      30.32R
GREEN BAY      CLEAR     31  30  96 NW6       30.32R WCI  25
MANITOWOC      NOT AVBL
APPLETON       PTCLDY    32  32 100 CALM      30.31R
CLINTONVILLE   PTCLDY    32  32 100 CALM      30.32R
OSHKOSH        PTCLDY    33  32  96 CALM      30.31R
$$

WIZ032>034-041-042-053>061-220800-
SOUTHWEST WISCONSIN

CITY           SKY/WX    TMP DP  RH WIND       PRES   REMARKS
LA CROSSE      CLEAR     41  35  79 E7        30.26F
SPARTA         CLEAR     28  27  99 CALM      30.29S
VIROQUA        CLEAR     36  36 100 SE6       30.26S WCI  31
BOSCOBEL       PTCLDY    31  28  89 CALM      30.29S FOG
PRAIRIE DU CHI CLEAR     39  36  87 CALM      30.28R
PLATTEVILLE    CLEAR     36  34  92 E9        30.28S WCI  29
$$

WIZ056-057-062-063-064-067-068-220800-
SOUTH CENTRAL WISCONSIN

CITY           SKY/WX    TMP DP  RH WIND       PRES   REMARKS
REEDSBURG      CLEAR     30  30  97 CALM      30.29S
BARABOO/DELLS  CLEAR     32  31  98 CALM      30.29S FOG
LONE ROCK      NOT AVBL
MINERAL POINT  CLEAR     37  34  87 E5        30.27S WCI  34
MADISON        PTCLDY    30  28  92 CALM      30.30S FOG
MIDDLETON      PTCLDY    31  31 100 CALM      30.30S
WATERTOWN      FOG       29  29 100 CALM      30.29S VSB 3/4
MONROE         CLEAR     36  36 100 NE5       30.28R WCI  32
JANESVILLE     FOG       32  32 100 CALM      30.29R VSB 1/2
$$

WIZ051-052-058>065-066-070>072-220800-
SOUTHEAST WISCONSIN

CITY           SKY/WX    TMP DP  RH WIND       PRES   REMARKS
MILWAUKEE      PTCLDY    39  34  82 W7        30.28S WCI  34
WAUKESHA       PTCLDY    32  32 100 CALM      30.29S
MILWAUKEE/TIMM CLEAR     32  30  93 CALM      30.29S FOG
RACINE         PTCLDY    37  34  89 CALM      30.29S
BURLINGTON     PTCLDY    28  28  99 CALM      30.28S
KENOSHA        CLEAR     37  34  89 NW3       30.28R
FOND DU LAC    PTCLDY    29  26  89 W3        30.31R
SHEBOYGAN      CLEAR     32  30  92 CALM      30.30S
WEST BEND      FOG       30  28  93 CALM      30.29R VSB 3/4
JUNEAU           N/A     32  32 100 CALM      30.30S FOG
$$

LSZ147-162-220800-
LAKE SUPERIOR

STATION/POSITION TIME  TEMP    WIND        PRES    WAVE
                       AIR SEA DIR/SP/G            HT/PER
                 (UTC) (F)     (DEG/KT/KT) (MB)    (FT/S)
W MID LAKE BUOY  0550   44 46  140/ 16/ 17 1025.1S   2/ 5
DEVILS ISLAND    0600   45     130/  8/ 10 1024.9F
PORT WING        0640   41     100/  1/  2 1023.4F
SAXON HARBOR     0600   31      CALM  /  3 1024.4R
$$

LMZ867-665-643>646-220800-
LAKE MICHIGAN

STATION/POSITION TIME  TEMP    WIND        PRES    WAVE
                       AIR SEA DIR/SP/G            HT/PER
                 (UTC) (F)     (DEG/KT/KT) (MB)    (FT/S)
CHAMBERS ISLAND  0600   40      90/  2/  3 1026.4S
N MID LAKE BUOY  0550   46 51  100/ 10/ 12 1026.7R   2/ 4
NORTHPORT PIER   0600   46      90/  6/ 10 1026.4R
SISTER BAY       0612          120/  5/  7   N/A
KEWAUNEE LAKESHO 0600   37     360/  1/  4 1025.2R
SHEBOYGAN LAKESH 0600   47 49   80/ 11/ 12 1026.4R
PORT WASHINGTON  0640   40     280/  3/  6 1026.4R
ATWATER BUOY     0600   49      60/ 10/ 14 1026.0R
MILWAUKEE LAKESH 0600   48      70/ 11/ 12   N/A
S MID LAKE BUOY  0550   50 54   70/ 12/ 14 1024.8R   4/ 6
KENOSHA   LAKESH 0600   44     310/  6/  6 1024.7S
$$

TC  - TEMPERATURE IN CELSIUS
VSB - VISIBILITY IN STATUTE MILES
WCI - WIND CHILL INDEX
HX  - HEAT INDEX




USA.gov is the U.S. government's official web portal to all federal, state and local government web resources and services.